INTELSAT 30 (IS-30)

Last updated on Tue Sep 22 2026 00:03:13 GMT+0000 (Coordinated Universal Time)

1 40271U 14062A 26264.51291375 .00000000 00000+0 00000+0 0 9998 2 40271 0.0174 144.1104 0001724 267.7718 38.1248 1.00269220 7752
UTC large
Height (km)
Speed (km/s)
/
Latitude / Longitude
Inclination (degrees)
Orbital Period (minutes)
Azimuth
Elevation
Range (km)
Doppler Factor

Next 0 passes for location: London (51.5072 / 0.1276)

No passes found over London.
INTELSAT 30 (IS-30)